Regional Weather Roundup
Issued by NWS

Home | Current Version | Previous Version | Graphics & Text | Print | Product List | Glossary On
Versions: 1 2 3 4 5 6 7 8 9 10 11 12 13 14 15 16 17 18 19 20 21 22 23 24 25 26 27 28 29 30 31 32 33 34 35 36 37 38 39 40 41 42 43 44 45 46 47 48 49 50
624
ASUS43 KDTX 200710
RWRMI
MICHIGAN HOURLY REGIONAL WEATHER ROUNDUP
NATIONAL WEATHER SERVICE DETROIT/PONTIAC MI
200 AM EST TUE FEB 20 2018

NOTE: "FAIR" INDICATES FEW OR NO CLOUDS BELOW 12,000 FEET WITH NO
SIGNIFICANT WEATHER AND/OR OBSTRUCTION TO VISIBILITY.

MIZ047>049-052>055-059>063-066>070-074>076-081>083-200800-
SOUTHEAST LOWER MICHIGAN

CITY           SKY/WX    TMP DP  RH WIND       PRES   REMARKS
ADRIAN         FOG       44  44 100 SE5       29.97F VSB 1/4
ALMA           LGT RAIN  36  36 100 CALM      29.88S
ANN ARBOR      RAIN      53  53 100 S8        29.98R FOG
BAD AXE        LGT RAIN  36  36 100 CALM      29.91F
CARO           LGT RAIN  42  42 100 CALM      29.89S VSB 1
DETROIT CITY   RAIN      56  54  93 SW12      29.98R FOG
DETROIT        RAIN      51  51 100 S6        29.98F FOG
FLINT          LGT RAIN  56  54  93 SW18G29   29.90S
GROSSE ILE     LGT RAIN  41  41  99 CALM      29.98R VSB 1/2
HILLSDALE      LGT RAIN  55  54  94 CALM      29.95R
HOWELL         RAIN      57  56  94 SW13      29.93R

CITY           SKY/WX    TMP DP  RH WIND       PRES   REMARKS
JACKSON        HVY RAIN  58  57  97 S10       29.95S FOG
LAMBERTVILLE   CLOUDY    59  54  83 S8G17     29.98R
LANSING        RAIN      57  56  96 S17       29.91R
LAPEER         LGT RAIN  55  52  92 SW9       29.91S
MASON          RAIN      58  54  86 SW7       29.93R
MONROE         CLOUDY    54  52  93 CALM      29.97S FOG
MT. CLEMENS    LGT RAIN  50  50 100 SW15      29.94S FOG
PONTIAC        LGT RAIN  57  56  96 SW17G28   29.94R
PORT HOPE        N/A     36  35  96 SE3       29.90F
PORT HURON     CLOUDY    52  50  93 S6        29.95S FOG
TRI CITIES     LGT RAIN  35  34  96 NE5       29.89F VSB 1/2 WCI  31
MIDLAND        DRIZZLE   36  36 100 E3        29.88S
TROY           LGT RAIN  56  55  94 S12G22    29.98R
SAGINAW HB     LGT RAIN  34  34 100 CALM      29.88F VSB 3/4
$$
MIZ043>046-050>051-056>058-064>065-071>073-077>080-200800-
SOUTHWEST LOWER MICHIGAN

CITY           SKY/WX    TMP DP  RH WIND       PRES   REMARKS
BATTLE CREEK   RAIN      56  55  97 SW16      29.93R FOG
BENTON HARBOR  RAIN      59  57  93 S9        29.88R FOG
BIG RAPIDS     LGT SNOW  36  34  92 SE3       29.83F
COLDWATER      HVY RAIN  56  56 100 CALM      29.95R
FREMONT        CLOUDY    55  54  97 SW23G32   29.80S
HOLLAND        RAIN      60  57  89 S22G29    29.82F
GRAND RAPIDS   LGT RAIN  58  32  37 S18G25    29.85R
IONIA          LGT RAIN  55  55  99 SW16G25   29.86R
KALAMAZOO      HVY RAIN  57  55  93 S10       29.92R FOG
LUDINGTON      LGT RAIN  44  44 100 SW10G17   29.80R VSB 1/2
MARSHALL       RAIN      58  57  99 S13G22    29.93S
MOUNT PLEASANT CLOUDY    37  36  95 CALM      29.86F FOG
MUSKEGON       LGT RAIN  52  50  93 S21G30    29.82S FOG
SOUTH HAVEN    LGT RAIN  60  58  92 S8G17     29.87S
$$
MIZ016>042-200800-
NORTHERN LOWER MICHIGAN

CITY           SKY/WX    TMP DP  RH WIND       PRES   REMARKS
ALPENA         LGT RAIN  34  34 100 E10       29.94F FOG     WCI  26
BEAVER ISLAND  CLOUDY    28  27  95 E14G22    29.89F FOG     WCI  17
BELLAIRE       LGT SNOW  36  36 100 CALM      29.86S
CADILLAC       LGT RAIN  35  35  99 E7        29.81S WCI  29
CHARLEVOIX     LGT RAIN  34  34 100 E16       29.89S WCI  24
FRANKFORT      LGT RAIN  41  41 100 SE5       29.79F
GAYLORD        LGT RAIN  33  33 100 E5        29.87S FOG     WCI  29
GRAYLING       LGT RAIN  34  34 100 SE7       29.86S FOG     WCI  28
HARBOR SPRINGS DRIZZLE   31  31  99 NE17G24   29.89F WCI  20
HOUGHTON LAKE  LGT RAIN  36  35  96 E8        29.85F WCI  30
MANISTEE       LGT RAIN  38  37  97 E6        29.80S VSB 3/4 WCI  33
OSCODA         LGT SNOW  34  33  97 E5        29.90F WCI  30
PELLSTON       FRZ RAIN  30  28  92 E13       29.94S FOG     WCI  20
ROGERS CITY    LGT RAIN  30  29  97 NE8       29.97S WCI  22
TRAVERSE CITY  LGT RAIN  38  36  92 CALM      29.82S FOG
$$
MIZ007>008-015-200800-
EASTERN UPPER MICHIGAN

CITY           SKY/WX    TMP DP  RH WIND       PRES   REMARKS
KINROSS        MIX PCPN  20  18  92 E15       29.98F WCI   6
MACKINAC ISLAN CLOUDY    24  23  94 E17G28    29.93F WCI  11
NEWBERRY       CLOUDY    20  19  98 NE13      29.93F WCI   7
S. S. MARIE    MIX PCPN  19  13  77 E14       29.99F WCI   6
MUNISING         N/A     23  23 100 NE9       29.94F WCI  13
$$
MIZ004>006-011>014-085-200800-
CENTRAL UPPER MICHIGAN

CITY           SKY/WX    TMP DP  RH WIND       PRES   REMARKS
MANISTIQUE     CLOUDY    26  24  93 NE12      29.90F WCI  15
ESCANABA       MIX PCPN  26  25  96 NE12      29.88F FOG     WCI  16
MENOMINEE      LGT SNOW  30  30 100 NE14G21   29.85F FOG     WCI  20
SAWYER-GWINN   FLURRIES  22  21  93 NE12      29.90S WCI  11
$$
MIZ001>003-009>011-084-200800-
WESTERN UPPER MICHIGAN

CITY           SKY/WX    TMP DP  RH WIND       PRES   REMARKS
IRON MOUNTAIN  CLOUDY    24  21  88 N6        29.86S FOG     WCI  17
HOUGHTON       CLOUDY    18  11  74 E14       29.97F WCI   4
COPPER HARBOR    N/A     19  15  84 E10G21    30.04F WCI   7
IRONWOOD       CLOUDY    16  14  92 E9        29.92F WCI   4
$$

ABBREVIATIONS USED IN REMARKS
   TC - TEMPERATURE IN CELSIUS
  WCI - WIND CHILL INDEX
   HX - HEAT INDEX
  VSB - VISIBILITY





USA.gov is the U.S. government's official web portal to all federal, state and local government web resources and services.